{"data":{"norad_id":53061,"epoch":"2026-09-19T21:49:33.229632Z","epoch_age_seconds":120485,"freshness":"FRESH","line1":"1 53061U 22077U   26262.90941238  .00000941  00000+0  31473-4 0  9992","line2":"2 53061  97.2858  77.7637 0001503  89.8466 270.2949 15.33436557230205","mean_motion":15.33436557,"eccentricity":0.0001503,"inclination_deg":97.2858,"raan_deg":77.7637,"arg_perigee_deg":89.8466,"mean_anomaly_deg":270.2949,"bstar":3.1473e-5,"rev_number":23020,"period_min":93.906721698171,"perigee_km":464.53968611539,"apogee_km":466.59690392708,"semimajor_km":6843.7052950212,"source":"CELESTRAK","updated_at":"2026-09-20T09:00:40.153500Z"}}